Flag for U.S.A. Weather past 2 weeks in San Francisco, California, U.S.A.

68 °F

Broken clouds.

Feels Like: 68 °F
Forecast: 60 / 69 °F
Wind: 14 mph from West

Location: San Francisco International Airport

Current Time: Oct 10, 2015 at 11:57:31 AM

Latest Report: Oct 10, 2015 at 10:56 AM

Visibility: 10 mi

Pressure: 30.05 "Hg

Humidity: 76%

Dew point: 60 °F

Location of San FranciscoLocation

Historic Weather in San Francisco — Graph


San Francisco temperature yesterday

Maximum temperature yesterday: 77 °F (at 12:56 PM)
Minimum temperature yesterday: 57 °F (at 3:56 AM)
Average temperature yesterday: 65 °F

Past Weeks' High & Low Weather Summary

High79 °F (Oct 8, 1:56 PM)97% (Oct 10, 12:56 AM)30.14 "Hg (Oct 10, 12:56 AM)
Low54 °F (Oct 4, 4:56 AM)35% (Oct 9, 12:56 PM)29.45 "Hg (Oct 3, 9:56 PM)
Average63 °F73%29.92 "Hg
* Reported Sep 25 10:56 AM — Oct 10 10:56 AM, San Francisco, Weather by CustomWeather, © 2015

Note: Actual official high and low records may vary slightly from our data, if they occured in-between our weather recording intervals... More about our weather records


San Francisco weather history for previous 24 hours

Time TempWeatherWind HumidityBarometerVisibility
10:56 AM
Sat, Oct 10
68 °FBroken clouds.14 mph76%30.05 "Hg10 mi
9:56 AM63 °FPartly sunny.16 mph87%30.05 "Hg10 mi
8:56 AM63 °FPartly sunny.15 mph87%30.03 "Hg9 mi
7:56 AM60 °FMostly cloudy.15 mph93%30.01 "Hg7 mi
6:56 AM60 °FFog.5 mph96%29.99 "Hg1 mi
5:56 AM61 °FFog.No wind93%29.98 "Hg4 mi
4:56 AM60 °FLow clouds.8 mph96%29.98 "Hg8 mi
3:56 AM61 °FFog.8 mph93%29.98 "Hg2 mi
2:56 AM61 °FLow clouds.9 mph97%30.00 "Hg8 mi
1:56 AM61 °FFog.10 mph97%30.01 "Hg5 mi
12:56 AM61 °FFog.9 mph97%30.01 "Hg2 mi
11:56 PM
Fri, Oct 9
62 °FFog.12 mph93%30.01 "Hg5 mi
10:56 PM62 °FPassing clouds.9 mph93%30.01 "Hg10 mi
9:56 PM63 °FPassing clouds.8 mph90%30.01 "Hg10 mi
8:56 PM63 °FPassing clouds.6 mph93%30.01 "Hg10 mi
7:56 PM64 °FPassing clouds.14 mph87%30.01 "Hg10 mi
6:56 PM65 °FScattered clouds.20 mph85%30.00 "Hg10 mi
5:56 PM69 °FScattered clouds.21 mph68%30.00 "Hg10 mi
4:56 PM75 °FPassing clouds.18 mph52%30.01 "Hg10 mi
3:56 PM76 °FPassing clouds.22 mph45%30.02 "Hg10 mi
2:56 PM77 °FPassing clouds.13 mph39%30.03 "Hg10 mi
1:56 PM77 °FPassing clouds.10 mph35%30.04 "Hg10 mi
12:56 PM77 °FPassing clouds.15 mph35%30.06 "Hg10 mi
11:56 AM66 °FPassing clouds.18 mph68%30.07 "Hg10 mi
11:04 AM66 °FPassing clouds.16 mph68%30.09 "Hg10 mi
Weather by CustomWeather, © 2015

See weather overviewHow to use our weather pages